Flag for Germany Weather past 2 weeks in Ingelheim am Rhein, Rhineland-Palatinate, Germany

59 °F


Feels Like: 60 °F
Forecast: 55 / 61 °F
Wind: 3 mph from Southeast

Location: Wiesbaden Airport

Current Time: Oct 7, 2015 at 1:43:52 AM

Latest Report: Oct 7, 2015 at 1:02 AM

Visibility: 5 mi

Pressure: 29.75 "Hg

Humidity: 100%

Dew point: 59 °F

Location of Ingelheim am RheinLocation

Historic Weather in Ingelheim am Rhein — Graph


Ingelheim am Rhein temperature yesterday

Maximum temperature yesterday: 64 °F (at 11:58 AM)
Minimum temperature yesterday: 57 °F (at 1:58 AM)
Average temperature yesterday: 61 °F

Past Weeks' High & Low Weather Summary

High68 °F (Oct 2, 3:58 PM)100% (Sep 22, 4:58 AM)30.60 "Hg (Sep 22, 4:58 AM)
Low45 °F (Oct 2, 6:58 AM)37% (Oct 1, 3:58 PM)29.58 "Hg (Sep 22, 6:58 PM)
Average57 °F73%30.14 "Hg
* Reported Sep 22 12:58 AM — Oct 7 12:58 AM, Ingelheim am Rhein, Weather by CustomWeather, © 2015

Note: Actual official high and low records may vary slightly from our data, if they occured in-between our weather recording intervals... More about our weather records


Ingelheim am Rhein weather history for previous 24 hours

Time TempWeatherWind HumidityBarometerVisibility
12:58 AM
Wed, Oct 7
59 °FFog.5 mph100%29.75 "Hg5 mi
11:58 PM
Tue, Oct 6
60 °FOvercast.3 mph100%29.75 "HgN/A
10:58 PM59 °FFog.2 mph100%29.74 "Hg5 mi
9:58 PM60 °FOvercast.2 mph100%29.74 "HgN/A
8:58 PM63 °FMostly cloudy.5 mph100%29.73 "HgN/A
6:58 PM64 °FBroken clouds.6 mph92%29.70 "HgN/A
5:55 PM64 °FBroken clouds.8 mph100%29.67 "HgN/A
4:58 PM64 °FLight rain. Passing clouds.7 mph100%29.70 "Hg5 mi
3:58 PM64 °FPartly sunny.6 mph99%29.67 "HgN/A
2:58 PM64 °FMostly cloudy.2 mph100%29.68 "HgN/A
1:59 PM64 °FMostly cloudy.5 mph100%29.68 "HgN/A
1:58 PM64 °FLight rain. Mostly cloudy.5 mph100%29.68 "HgN/A
12:58 PM64 °FLight rain. Mostly cloudy.7 mph94%29.71 "HgN/A
11:58 AM64 °FPartly sunny.6 mph94%29.70 "HgN/A
10:58 AM63 °FOvercast.6 mph100%29.70 "HgN/A
9:58 AM61 °FLow clouds.5 mph100%29.70 "HgN/A
8:58 AM59 °FFog.6 mph100%29.69 "Hg4 mi
6:58 AM59 °FFog.3 mph100%29.70 "Hg2 mi
5:58 AM59 °FFog.5 mph100%29.70 "Hg2 mi
4:58 AM59 °FFog.5 mph100%29.71 "Hg2 mi
4:03 AM57 °FFog.5 mph100%29.71 "Hg3 mi
3:58 AM57 °FLight rain. Fog.3 mph100%29.71 "Hg2 mi
2:58 AM57 °FFog.7 mph100%29.72 "Hg4 mi
1:58 AM57 °FLight rain. Fog.9 mph100%29.74 "Hg2 mi
1:00 AM57 °FDrizzle. Fog.7 mph100%29.75 "Hg5 mi
Weather by CustomWeather, © 2015

See weather overviewHow to use our weather pages